Oak Ridge, TN

9:36 AM EDT on September 26, 2016 (GMT -0400)
Oak Ridge

Weather History for KOQT - December, 2013

Change the Weather History Date:

Wednesday, December 4, 2013

  Actual Average (KTYS) Record (KTYS)
Temperature  
Mean Temperature 58 °F 43 °F  
Max Temperature 66 °F 53 °F 80 °F (1982)
Min Temperature 51 °F 34 °F 12 °F (1871)
Degree Days  
Heating Degree Days 6 22  
Month to date heating degree days 85  
Since 1 July heating degree days 766  
Cooling Degree Days 0 0  
Month to date cooling degree days 0  
Year to date cooling degree days 1526  
Growing Degree Days 8 (Base 50)    
Moisture  
Dew Point 54 °F    
Average Humidity 87    
Maximum Humidity 96    
Minimum Humidity 73    
Precipitation  
Precipitation 0.00 in 0.16 in 4.00 in (1993)
Month to date precipitation 0.62  
Year to date precipitation 43.98  
Snow  
Snow 0.00 in 0.10 in - ()
Month to date snowfall 0.1  
Since 1 July snowfall 0.1  
Snow Depth -    
Sea Level Pressure  
Sea Level Pressure 29.94 in    
Wind  
Wind Speed 0 mph (WSW)    
Max Wind Speed 5 mph    
Max Gust Speed -    
Visibility 8 miles    
Events Rain    
T = Trace of Precipitation, MM = Missing Value Source: NWS Daily Summary

Daily Weather History Graph

Daily Weather History Graph

Search for Another Location

Airport or City:

Trip Planner

Search our weather history database for the weather conditions in past years. The results will help you decide how hot, cold, wet, or windy it might be!

Date:

Astronomy

Dec. 04, 2013 Rise Set
Actual Time 7:31 AM EST 5:22 PM EST
Civil Twilight 7:03 AM EST 5:50 PM EST
Nautical Twilight 6:31 AM EST 6:22 PM EST
Astronomical Twilight 6:00 AM EST 6:53 PM EST
Moon 9:00 AM EST (12/4) 7:30 PM EST (12/4)
Length of Visible Light 10h 47m
Length of Day
9h 50m
Waxing Crescent, 4% of the Moon is Illuminated
Dec 4
Waxing Crescent
Dec 9
First Quarter
Dec 17
Full
Dec 25
Last Quarter
Jan 1
New

Hourly Weather History & Observations

Time (EST) Temp. Dew Point Humidity Pressure Visibility Wind Dir Wind Speed Gust Speed Precip Events Conditions
12:53 AM 51.1 °F 48.9 °F 92% 29.91 in 5.0 mi Calm Calm - N/A   Overcast
1:53 AM 51.1 °F 50.0 °F 96% 29.91 in 6.0 mi Calm Calm - N/A   Overcast
2:53 AM 51.1 °F 50.0 °F 96% 29.91 in 5.0 mi Calm Calm - N/A   Overcast
3:23 AM 51.1 °F 50.0 °F 96% 29.90 in 5.0 mi Calm Calm - N/A   Overcast
3:48 AM 51.8 °F 50.0 °F 94% 29.90 in 6.0 mi Calm Calm - N/A   Overcast
3:53 AM 51.1 °F 50.0 °F 96% 29.91 in 5.0 mi Calm Calm - N/A   Overcast
4:53 AM 51.1 °F 50.0 °F 96% 29.93 in 6.0 mi Calm Calm - N/A   Overcast
5:53 AM 51.1 °F 50.0 °F 96% 29.94 in 4.0 mi Calm Calm - 0.00 in   Overcast
6:53 AM 51.1 °F 50.0 °F 96% 29.94 in 5.0 mi Calm Calm - N/A   Overcast
7:53 AM 52.0 °F 50.0 °F 93% 29.96 in 6.0 mi Calm Calm - 0.00 in   Overcast
8:53 AM 52.0 °F 50.0 °F 93% 29.98 in 6.0 mi Calm Calm - 0.00 in Rain Light Rain
9:53 AM 53.1 °F 51.1 °F 93% 29.99 in 4.0 mi Calm Calm - 0.00 in   Overcast
10:53 AM 55.0 °F 51.1 °F 86% 29.99 in 7.0 mi Calm Calm - 0.00 in   Overcast
11:53 AM 55.9 °F 52.0 °F 87% 29.96 in 9.0 mi Calm Calm - N/A   Overcast
12:53 PM 57.0 °F 53.1 °F 87% 29.94 in 9.0 mi Calm Calm - N/A   Overcast
1:53 PM 62.1 °F 55.0 °F 78% 29.90 in 9.0 mi Variable 3.5 mph - N/A   Mostly Cloudy
2:53 PM 64.9 °F 57.0 °F 75% 29.90 in 10.0 mi SW 4.6 mph - N/A   Mostly Cloudy
3:53 PM 66.9 °F 57.9 °F 73% 29.89 in 10.0 mi Calm Calm - N/A   Partly Cloudy
4:53 PM 66.0 °F 57.9 °F 75% 29.89 in 10.0 mi Calm Calm - N/A   Mostly Cloudy
5:53 PM 61.0 °F 57.0 °F 87% 29.91 in 10.0 mi Calm Calm - N/A   Clear
6:53 PM 64.0 °F 57.0 °F 78% 29.92 in 10.0 mi Variable 4.6 mph - N/A   Partly Cloudy
7:53 PM 63.0 °F 57.0 °F 81% 29.95 in 10.0 mi Calm Calm - N/A   Mostly Cloudy
8:53 PM 63.0 °F 57.0 °F 81% 29.95 in 10.0 mi Calm Calm - N/A   Mostly Cloudy
9:53 PM 63.0 °F 57.0 °F 81% 29.97 in 10.0 mi WSW 3.5 mph - N/A   Scattered Clouds
10:49 PM 62.6 °F 57.2 °F 82% 29.99 in 10.0 mi Calm Calm - N/A   Mostly Cloudy
10:53 PM 62.1 °F 57.0 °F 84% 29.98 in 10.0 mi West 4.6 mph - N/A   Mostly Cloudy
11:29 PM 61.0 °F 57.0 °F 87% 29.99 in 10.0 mi Calm Calm - N/A   Overcast
11:42 PM 61.0 °F 57.0 °F 87% 29.99 in 10.0 mi Calm Calm - N/A   Overcast
11:53 PM 60.1 °F 57.0 °F 90% 29.99 in 8.0 mi Calm Calm - N/A   Overcast